SCP
0 0 0 0 0 0 1 1 1 2 7 7 6 4 3 3 2 2 2 1 5 4 2 1 2 2 1 0 1 0 0 1 1 1 1 1 1 1 1 0 0 0 0
0 0 0 0 0 0 0 0 0 0 0 0 1 1 1 0 0 0 1 1 5 5 3 3 4 2 2 1 0 1 0 1 1 1 1 1 0 0 1 1 0 0 1
0 0 0 0 0 0 0 1 0 0 0 0 0 1 0 0 1 2 1 2 5 5 4 4 2 2 1 1 1 1 0 1 1 1 1 1 1 0 0 0 0 0 1
0 0 0 0 0 0 0 0 0 0 0 0 0 1 1 0 0 0 2 4 5 5 5 3 2 1 1 1 1 1 0 0 1 1 1 1 0 0 0 0 0 0 0
0 0 0 0 0 0 0 0 0 0 0 0 0 0 1 0 0 1 2 3 4 4 4 3 2 2 1 1 1 1 1 0 1 1 0 0 0 0 0 0 0 0 0
0 0 0 0 0 0 0 0 0 0 0 0 1 0 0 1 1 2 2 3 4 3 3 3 2 1 1 1 1 1 0 1 1 1 0 0 0 0 0 0 0 0 0
0 0 0 0 0 0 0 0 0 0 0 0 1 0 0 0 0 2 2 2 3 2 2 2 1 1 1 1 1 1 1 1 1 0 0 0 0 0 0 0 0 0 0
0 0 0 0 0 0 0 0 0 0 0 0 2 2 1 1 1 1 2 2 2 2 1 1 1 1 1 1 1 1 1 0 0 0 0 0 0 0 0 0 0 0 0
0 0 0 0 0 0 0 0 0 0 1 1 2 2 1 1 1 1 2 2 1 1 1 1 1 0 0 0 0 0 0 0 0 0 0 0 0 0 0 0 0 0 0
0 0 0 0 0 0 0 0 0 0 0 1 1 2 1 2 1 1 1 1 1 1 1 1 0 0 0 0 0 0 0 0 0 0 0 0 0 0 0 0 0 0 0
0 0 1 1 0 1 1 2 3 3 3 3 2 1 2 1 1 1 1 1 1 0 0 0 0 0 0 0 0 0 0 0 0 0 0 0 0 0 0 0 0 0 0
0 0 1 1 1 4 6 5 4 4 3 2 2 1 1 1 1 1 1 0 0 0 0 0 0 0 0 0 0 0 0 0 0 0 0 0 0 0 0 0 0 0 0
0 0 0 1 2 4 5 5 4 3 2 2 1 1 1 1 1 1 0 0 0 0 0 0 0 0 0 0 0 0 0 0 0 0 0 0 0 0 0 0 0 0 0
0 -0 -0 0 1 4 4 3 2 2 2 1 1 1 1 0 0 0 0 0 0 0 0 0 0 0 0 0 0 0 0 0 0 0 0 0 0 0 0 0 0 0 0
-0 0 0 0 1 2 2 2 1 1 1 1 1 0 0 0 0 0 0 0 0 0 0 0 0 0 0 0 0 0 0 0 0 0 0 0 0 0 0 0 0 0 0
-0 -0 0 0 0 2 1 1 1 1 1 0 0 0 0 0 0 0 0 0 0 0 0 0 0 0 0 0 0 0 0 0 0 0 0 0 0 0 0 0 0 -0 -0
0 -0 -0 0 0 0 1 1 0 0 0 0 0 0 0 0 0 0 0 0 0 0 0 0 0 0 0 0 0 0 0 0 0 0 0 0 0 0 0 0 0 0 0
-0 -0 -0 -0 0 0 0 0 0 0 0 0 0 0 0 0 0 0 -0 0 0 0 0 0 0 0 0 0 0 0 0 -0 -0 0 -0 0 0 0 0 0 0 0 0
-0 -0 -0 -0 -0 0 0 0 0 0 0 0 0 0 -0 -0 0 -0 0 0 0 0 0 0 0 0 0 0 0 0 -0 -0 -0 0 0 0 0 0 0 0 0 0 0
-0 -0 -0 0 0 0 0 0 0 -0 0 0 -0 -0 -0 -0 -0 -0 -0 0 0 0 0 0 0 0 0 0 -0 -0 0 0 -0 0 0 0 0 0 -0 0 0 0 0
-0 -0 0 0 0 0 0 0 -0 0 -0 0 -0 -0 0 -0 -0 -0 0 0 0 0 -0 0 0 0 0 0 -0 -0 0 0 0 0 0 0 -0 0 0 0 0 0 0
0 -0 0 0 0 0 0 -0 0 0 0 -0 -0 -0 -0 -0 -0 -0 0 -0 -0 -0 0 0 0 0 -0 0 0 -0 -0 -0 0 0 0 0 0 0 -0 0 -0 -0 0
0 -0 0 0 0 0 0 0 0 0 -0 -0 -0 -0 -0 -0 -0 -0 -0 -0 -0 0 0 -0 -0 -0 -0 0 -0 -0 -0 -0 0 0 0 0 -0 -0 -0 -0 0 0 0
-0 -0 0 0 0 0 0 0 0 -0 -0 -0 -0 -0 -0 -0 -0 -0 0 0 0 0 -0 -0 -0 0 0 -0 0 0 -0 -0 -0 0 0 0 0 0 0 0 0 0 0
-0 -0 0 0 0 0 0 0 0 -0 -0 0 -0 -0 -0 -0 -0 -0 0 0 0 0 -0 -0 -0 0 0 0 0 0 0 0 0 0 0 0 0 0 0 0 0 0 0
0 -0 0 0 0 0 0 -0 0 0 0 -0 0 -0 -0 -0 -0 -0 0 0 0 0 0 -0 -0 0 -0 -0 -0 -0 -0 -0 -0 0 0 0 0 -0 0 0 0 0 0
Wind_Speed_500mb
89 104 91 76 47 66 67 72 77 70 67 61 58 55 64 67 63 66 65 67 70 69 70 75 69 64 60 59 67 70 64 65 61 54 48 54 44 55 51 46 37 36 39
80 88 95 96 83 75 61 66 70 73 68 62 60 56 57 69 71 73 77 64 65 68 71 72 68 64 60 63 61 67 70 60 65 56 47 40 52 58 56 46 41 39 39
82 85 87 85 70 81 63 62 66 69 67 61 58 59 60 68 69 67 54 61 64 62 66 71 64 59 58 63 69 62 70 68 59 58 53 27 28 19 26 28 41 46 37
56 90 90 89 91 63 56 61 58 59 53 53 61 63 66 67 66 69 68 55 69 61 62 62 60 52 51 60 63 60 65 56 61 60 56 59 26 7 9 21 26 31 31
60 56 53 65 76 70 65 64 58 55 59 66 69 69 68 66 63 58 58 60 65 61 58 58 55 48 48 51 52 57 62 68 58 58 56 43 43 38 34 25 22 25 25
75 70 73 78 73 69 65 58 58 63 62 65 68 75 73 66 58 57 54 57 60 61 55 53 47 46 49 44 47 49 47 49 59 56 46 37 35 29 26 27 25 26 28
56 67 89 86 91 92 88 94 88 75 69 75 82 85 76 66 55 55 55 60 66 62 53 50 48 45 46 41 39 51 40 46 50 45 43 30 30 32 24 23 21 18 17
74 70 64 88 92 93 91 85 82 82 81 71 66 66 68 61 54 61 56 67 68 57 48 45 40 43 47 42 39 36 39 39 43 35 32 34 27 28 30 27 19 13 15
76 78 58 70 68 77 66 75 82 73 65 59 56 60 60 54 58 67 62 63 55 47 43 37 38 37 43 43 39 39 38 28 27 28 34 40 34 30 25 23 19 15 15
77 83 55 35 36 45 52 56 68 71 53 47 49 51 48 48 52 55 54 47 45 43 35 35 36 37 36 43 36 29 27 25 24 24 28 24 30 27 21 19 17 16 21
68 70 46 44 45 48 59 58 66 54 47 48 46 46 42 52 47 44 41 37 32 34 40 44 41 38 40 33 24 26 24 25 27 23 24 22 24 21 20 14 9 13 17
76 84 36 48 53 54 63 63 53 52 44 36 38 42 50 48 45 34 35 38 35 35 45 38 39 37 33 28 23 26 28 28 26 22 23 22 19 20 23 17 11 6 15
92 81 60 42 64 65 56 54 49 42 41 45 47 49 54 45 41 42 36 37 37 39 38 36 32 26 21 16 21 29 26 26 26 24 22 20 20 21 25 21 17 13 20
91 93 95 54 34 64 53 51 59 53 54 54 55 53 48 45 46 46 45 45 40 38 37 26 23 21 20 12 10 15 23 30 31 30 27 21 21 18 27 23 17 22 28
76 71 47 57 35 74 67 66 60 61 58 59 54 52 49 46 48 47 46 45 41 36 24 32 27 25 24 24 24 21 23 23 27 27 26 32 27 18 24 22 22 28 33
39 3 19 16 41 69 72 75 71 68 65 59 59 56 54 53 49 44 37 36 33 38 32 36 31 23 23 24 22 19 13 16 16 25 32 29 24 21 24 22 24 26 33
28 38 37 33 43 42 65 72 80 71 60 59 53 51 47 39 36 38 37 41 36 35 36 25 19 23 18 17 13 13 12 10 16 18 21 25 21 23 26 28 26 22 18
43 22 13 19 70 56 60 77 75 69 66 59 53 48 42 40 41 40 41 38 36 31 27 23 17 12 15 13 11 13 13 20 20 25 25 25 27 26 27 29 27 31 26
32 38 17 58 51 55 78 76 75 68 65 58 51 43 43 43 42 41 40 37 33 28 27 19 14 12 13 11 13 14 17 20 24 24 28 28 28 31 31 29 29 27 24
35 12 34 40 47 72 71 59 60 58 59 55 43 40 38 40 47 39 39 31 26 26 24 20 16 12 11 14 18 15 14 17 25 25 23 23 25 33 30 27 34 37 30
35 17 17 34 57 63 63 65 61 66 55 43 38 35 44 47 43 37 27 26 27 27 26 21 15 15 15 17 16 13 16 17 23 25 26 25 24 30 29 27 34 34 32
42 22 38 38 60 63 57 73 62 53 48 39 41 46 46 42 45 32 31 33 32 30 25 16 18 16 14 13 13 16 17 15 19 26 23 25 30 28 26 26 25 29 30
34 13 21 42 61 56 62 61 60 57 49 44 50 50 41 40 36 31 27 31 28 26 26 16 10 13 12 10 15 19 21 18 17 20 24 28 30 24 22 26 29 26 27
36 15 47 50 52 49 56 67 60 52 45 53 56 46 41 38 30 30 32 29 26 28 27 25 16 11 13 16 22 21 19 16 20 31 32 29 24 23 25 32 27 21 29
19 2 38 61 60 60 68 61 50 46 50 50 41 37 42 36 33 33 35 32 31 29 28 21 11 8 17 22 22 21 22 26 33 36 35 36 35 31 34 30 26 24 29
29 18 27 43 60 56 61 43 56 48 48 46 35 39 35 31 28 31 27 28 29 27 24 19 11 16 13 28 27 25 24 30 31 34 33 33 34 36 35 31 30 28 30
Wind_Direction_500mb
250 262 265 264 271 247 234 234 232 232 230 228 229 246 254 255 256 259 260 257 254 249 254 255 251 246 243 245 233 237 239 236 233 237 248 249 253 258 263 268 257 248 256
244 250 261 263 261 265 242 222 222 223 226 236 243 250 256 263 264 265 267 265 257 249 246 252 249 240 239 237 235 231 234 234 235 240 241 247 250 259 271 258 254 249 260
237 241 251 254 262 258 233 227 224 232 240 247 258 260 256 259 256 254 252 249 246 246 247 248 246 242 242 238 232 231 232 236 234 234 235 247 251 259 256 260 247 246 258
254 239 237 247 245 260 234 232 233 242 248 252 255 252 255 260 258 253 245 254 238 241 246 248 247 242 248 236 233 231 230 233 234 233 235 234 244 267 275 259 240 247 259
261 245 238 248 245 247 252 240 230 233 246 255 258 261 258 266 268 259 258 243 234 238 241 247 242 242 241 231 234 231 230 235 235 235 244 252 252 253 254 247 249 251 273
258 253 252 255 256 250 245 246 250 256 255 256 259 260 260 258 259 246 239 233 232 233 237 244 241 234 233 226 232 231 234 240 237 237 244 240 240 241 236 238 259 276 288
271 264 256 254 252 243 250 255 259 260 259 253 254 254 251 250 249 229 235 230 231 229 233 232 237 220 215 224 229 227 235 235 232 227 229 239 232 247 226 249 266 274 281
285 275 284 251 246 241 245 248 248 250 246 244 240 240 240 240 239 229 235 234 232 234 238 241 216 212 209 216 219 222 229 224 220 219 220 224 219 233 252 259 261 257 240
284 280 282 237 239 242 240 242 239 235 234 235 234 229 232 231 228 232 231 230 226 235 247 218 205 205 211 211 216 217 218 215 220 224 228 231 233 245 254 250 251 245 226
299 276 257 240 229 227 231 231 226 223 225 224 221 227 228 225 219 222 220 223 231 238 215 191 188 191 199 201 203 201 203 213 223 230 230 223 230 247 248 241 238 237 228
326 286 244 239 246 237 240 224 203 198 199 210 211 210 208 201 206 208 218 225 197 176 176 182 184 184 186 183 192 202 207 217 227 227 223 226 222 222 217 215 244 244 232
322 318 278 238 237 223 195 177 178 182 185 197 201 193 185 185 195 199 176 168 168 171 173 174 171 169 175 188 206 212 203 219 229 232 237 233 220 212 203 204 210 208 169
315 308 276 263 214 180 164 168 174 173 167 170 175 178 179 180 174 166 169 166 164 161 159 152 156 175 197 195 206 201 210 214 229 237 232 230 209 208 200 193 209 199 171
299 294 271 251 216 179 177 176 160 160 166 164 163 164 164 167 165 162 158 149 146 149 153 168 173 170 157 165 201 224 225 233 238 233 218 216 208 208 210 201 192 182 171
294 280 252 244 199 180 168 168 162 159 162 162 161 157 159 160 157 151 151 157 159 165 171 167 183 188 185 199 208 241 256 242 227 219 212 204 202 189 205 202 196 190 183
249 248 280 123 156 182 164 163 154 152 151 150 150 153 150 150 148 152 157 162 161 155 164 164 165 180 211 218 231 246 238 207 209 202 198 194 208 193 191 195 208 205 192
326 39 30 102 133 191 163 144 149 141 150 149 152 150 149 150 151 152 155 158 162 166 172 173 198 213 212 214 224 221 195 180 182 173 174 190 200 187 175 178 188 183 182
328 19 38 138 179 193 155 146 139 139 148 148 152 154 156 154 155 155 159 159 163 168 175 190 194 197 199 207 197 185 180 172 155 172 174 177 174 174 178 171 167 169 176
344 105 61 185 196 173 144 140 139 143 145 153 151 156 154 152 154 159 163 161 171 176 186 178 184 187 181 172 160 170 179 187 175 167 171 176 176 173 180 183 179 168 163
8 79 312 214 167 145 145 144 147 157 156 150 148 154 164 166 167 161 161 167 178 182 179 170 165 154 160 145 148 149 159 156 152 157 160 165 191 174 178 176 174 162 165
352 36 186 239 159 148 145 148 155 151 149 143 138 149 156 155 160 162 162 169 164 164 164 174 156 147 149 152 147 157 159 165 161 163 162 162 164 159 164 174 173 171 167
331 6 182 188 156 156 154 142 140 139 145 143 138 145 156 158 159 158 159 159 162 163 161 162 157 149 150 142 148 149 149 151 165 164 170 161 154 154 156 164 171 180 170
315 321 229 194 165 151 155 141 136 138 136 149 145 150 148 151 158 161 165 167 169 175 166 157 141 157 149 143 141 157 163 162 170 171 165 154 152 152 150 161 163 169 176
304 284 199 194 149 145 154 142 144 144 145 141 147 146 142 151 161 174 172 176 180 182 180 180 183 166 158 149 149 153 154 160 157 156 162 160 159 147 142 145 156 171 168
305 51 177 154 144 152 142 139 149 152 138 139 142 146 156 165 171 174 180 185 183 193 193 202 183 189 162 147 146 148 149 150 146 148 151 153 156 157 148 149 156 160 167
134 181 170 149 146 146 137 142 147 140 135 138 148 155 161 166 162 157 161 178 187 184 182 166 131 139 149 143 143 134 139 131 134 148 149 153 154 149 150 153 158 162 168
Wind_Speed_850mb
89 104 91 76 47 66 67 72 77 70 67 61 58 55 64 67 63 66 65 67 70 69 70 75 69 64 60 59 67 70 64 65 61 54 48 54 44 55 51 46 37 36 39
80 88 95 96 83 75 61 66 70 73 68 62 60 56 57 69 71 73 77 64 65 68 71 72 68 64 60 63 61 67 70 60 65 56 47 40 52 58 56 46 41 39 39
82 85 87 85 70 81 63 62 66 69 67 61 58 59 60 68 69 67 54 61 64 62 66 71 64 59 58 63 69 62 70 68 59 58 53 27 28 19 26 28 41 46 37
56 90 90 89 91 63 56 61 58 59 53 53 61 63 66 67 66 69 68 55 69 61 62 62 60 52 51 60 63 60 65 56 61 60 56 59 26 7 9 21 26 31 31
60 56 53 65 76 70 65 64 58 55 59 66 69 69 68 66 63 58 58 60 65 61 58 58 55 48 48 51 52 57 62 68 58 58 56 43 43 38 34 25 22 25 25
75 70 73 78 73 69 65 58 58 63 62 65 68 75 73 66 58 57 54 57 60 61 55 53 47 46 49 44 47 49 47 49 59 56 46 37 35 29 26 27 25 26 28
56 67 89 86 91 92 88 94 88 75 69 75 82 85 76 66 55 55 55 60 66 62 53 50 48 45 46 41 39 51 40 46 50 45 43 30 30 32 24 23 21 18 17
74 70 64 88 92 93 91 85 82 82 81 71 66 66 68 61 54 61 56 67 68 57 48 45 40 43 47 42 39 36 39 39 43 35 32 34 27 28 30 27 19 13 15
76 78 58 70 68 77 66 75 82 73 65 59 56 60 60 54 58 67 62 63 55 47 43 37 38 37 43 43 39 39 38 28 27 28 34 40 34 30 25 23 19 15 15
77 83 55 35 36 45 52 56 68 71 53 47 49 51 48 48 52 55 54 47 45 43 35 35 36 37 36 43 36 29 27 25 24 24 28 24 30 27 21 19 17 16 21
68 70 46 44 45 48 59 58 66 54 47 48 46 46 42 52 47 44 41 37 32 34 40 44 41 38 40 33 24 26 24 25 27 23 24 22 24 21 20 14 9 13 17
76 84 36 48 53 54 63 63 53 52 44 36 38 42 50 48 45 34 35 38 35 35 45 38 39 37 33 28 23 26 28 28 26 22 23 22 19 20 23 17 11 6 15
92 81 60 42 64 65 56 54 49 42 41 45 47 49 54 45 41 42 36 37 37 39 38 36 32 26 21 16 21 29 26 26 26 24 22 20 20 21 25 21 17 13 20
91 93 95 54 34 64 53 51 59 53 54 54 55 53 48 45 46 46 45 45 40 38 37 26 23 21 20 12 10 15 23 30 31 30 27 21 21 18 27 23 17 22 28
76 71 47 57 35 74 67 66 60 61 58 59 54 52 49 46 48 47 46 45 41 36 24 32 27 25 24 24 24 21 23 23 27 27 26 32 27 18 24 22 22 28 33
39 3 19 16 41 69 72 75 71 68 65 59 59 56 54 53 49 44 37 36 33 38 32 36 31 23 23 24 22 19 13 16 16 25 32 29 24 21 24 22 24 26 33
28 38 37 33 43 42 65 72 80 71 60 59 53 51 47 39 36 38 37 41 36 35 36 25 19 23 18 17 13 13 12 10 16 18 21 25 21 23 26 28 26 22 18
43 22 13 19 70 56 60 77 75 69 66 59 53 48 42 40 41 40 41 38 36 31 27 23 17 12 15 13 11 13 13 20 20 25 25 25 27 26 27 29 27 31 26
32 38 17 58 51 55 78 76 75 68 65 58 51 43 43 43 42 41 40 37 33 28 27 19 14 12 13 11 13 14 17 20 24 24 28 28 28 31 31 29 29 27 24
35 12 34 40 47 72 71 59 60 58 59 55 43 40 38 40 47 39 39 31 26 26 24 20 16 12 11 14 18 15 14 17 25 25 23 23 25 33 30 27 34 37 30
35 17 17 34 57 63 63 65 61 66 55 43 38 35 44 47 43 37 27 26 27 27 26 21 15 15 15 17 16 13 16 17 23 25 26 25 24 30 29 27 34 34 32
42 22 38 38 60 63 57 73 62 53 48 39 41 46 46 42 45 32 31 33 32 30 25 16 18 16 14 13 13 16 17 15 19 26 23 25 30 28 26 26 25 29 30
34 13 21 42 61 56 62 61 60 57 49 44 50 50 41 40 36 31 27 31 28 26 26 16 10 13 12 10 15 19 21 18 17 20 24 28 30 24 22 26 29 26 27
36 15 47 50 52 49 56 67 60 52 45 53 56 46 41 38 30 30 32 29 26 28 27 25 16 11 13 16 22 21 19 16 20 31 32 29 24 23 25 32 27 21 29
19 2 38 61 60 60 68 61 50 46 50 50 41 37 42 36 33 33 35 32 31 29 28 21 11 8 17 22 22 21 22 26 33 36 35 36 35 31 34 30 26 24 29
29 18 27 43 60 56 61 43 56 48 48 46 35 39 35 31 28 31 27 28 29 27 24 19 11 16 13 28 27 25 24 30 31 34 33 33 34 36 35 31 30 28 30
Wind_Direction_850mb
250 262 265 264 271 247 234 234 232 232 230 228 229 246 254 255 256 259 260 257 254 249 254 255 251 246 243 245 233 237 239 236 233 237 248 249 253 258 263 268 257 248 256
244 250 261 263 261 265 242 222 222 223 226 236 243 250 256 263 264 265 267 265 257 249 246 252 249 240 239 237 235 231 234 234 235 240 241 247 250 259 271 258 254 249 260
237 241 251 254 262 258 233 227 224 232 240 247 258 260 256 259 256 254 252 249 246 246 247 248 246 242 242 238 232 231 232 236 234 234 235 247 251 259 256 260 247 246 258
254 239 237 247 245 260 234 232 233 242 248 252 255 252 255 260 258 253 245 254 238 241 246 248 247 242 248 236 233 231 230 233 234 233 235 234 244 267 275 259 240 247 259
261 245 238 248 245 247 252 240 230 233 246 255 258 261 258 266 268 259 258 243 234 238 241 247 242 242 241 231 234 231 230 235 235 235 244 252 252 253 254 247 249 251 273
258 253 252 255 256 250 245 246 250 256 255 256 259 260 260 258 259 246 239 233 232 233 237 244 241 234 233 226 232 231 234 240 237 237 244 240 240 241 236 238 259 276 288
271 264 256 254 252 243 250 255 259 260 259 253 254 254 251 250 249 229 235 230 231 229 233 232 237 220 215 224 229 227 235 235 232 227 229 239 232 247 226 249 266 274 281
285 275 284 251 246 241 245 248 248 250 246 244 240 240 240 240 239 229 235 234 232 234 238 241 216 212 209 216 219 222 229 224 220 219 220 224 219 233 252 259 261 257 240
284 280 282 237 239 242 240 242 239 235 234 235 234 229 232 231 228 232 231 230 226 235 247 218 205 205 211 211 216 217 218 215 220 224 228 231 233 245 254 250 251 245 226
299 276 257 240 229 227 231 231 226 223 225 224 221 227 228 225 219 222 220 223 231 238 215 191 188 191 199 201 203 201 203 213 223 230 230 223 230 247 248 241 238 237 228
326 286 244 239 246 237 240 224 203 198 199 210 211 210 208 201 206 208 218 225 197 176 176 182 184 184 186 183 192 202 207 217 227 227 223 226 222 222 217 215 244 244 232
322 318 278 238 237 223 195 177 178 182 185 197 201 193 185 185 195 199 176 168 168 171 173 174 171 169 175 188 206 212 203 219 229 232 237 233 220 212 203 204 210 208 169
315 308 276 263 214 180 164 168 174 173 167 170 175 178 179 180 174 166 169 166 164 161 159 152 156 175 197 195 206 201 210 214 229 237 232 230 209 208 200 193 209 199 171
299 294 271 251 216 179 177 176 160 160 166 164 163 164 164 167 165 162 158 149 146 149 153 168 173 170 157 165 201 224 225 233 238 233 218 216 208 208 210 201 192 182 171
294 280 252 244 199 180 168 168 162 159 162 162 161 157 159 160 157 151 151 157 159 165 171 167 183 188 185 199 208 241 256 242 227 219 212 204 202 189 205 202 196 190 183
249 248 280 123 156 182 164 163 154 152 151 150 150 153 150 150 148 152 157 162 161 155 164 164 165 180 211 218 231 246 238 207 209 202 198 194 208 193 191 195 208 205 192
326 39 30 102 133 191 163 144 149 141 150 149 152 150 149 150 151 152 155 158 162 166 172 173 198 213 212 214 224 221 195 180 182 173 174 190 200 187 175 178 188 183 182
328 19 38 138 179 193 155 146 139 139 148 148 152 154 156 154 155 155 159 159 163 168 175 190 194 197 199 207 197 185 180 172 155 172 174 177 174 174 178 171 167 169 176
344 105 61 185 196 173 144 140 139 143 145 153 151 156 154 152 154 159 163 161 171 176 186 178 184 187 181 172 160 170 179 187 175 167 171 176 176 173 180 183 179 168 163
8 79 312 214 167 145 145 144 147 157 156 150 148 154 164 166 167 161 161 167 178 182 179 170 165 154 160 145 148 149 159 156 152 157 160 165 191 174 178 176 174 162 165
352 36 186 239 159 148 145 148 155 151 149 143 138 149 156 155 160 162 162 169 164 164 164 174 156 147 149 152 147 157 159 165 161 163 162 162 164 159 164 174 173 171 167
331 6 182 188 156 156 154 142 140 139 145 143 138 145 156 158 159 158 159 159 162 163 161 162 157 149 150 142 148 149 149 151 165 164 170 161 154 154 156 164 171 180 170
315 321 229 194 165 151 155 141 136 138 136 149 145 150 148 151 158 161 165 167 169 175 166 157 141 157 149 143 141 157 163 162 170 171 165 154 152 152 150 161 163 169 176
304 284 199 194 149 145 154 142 144 144 145 141 147 146 142 151 161 174 172 176 180 182 180 180 183 166 158 149 149 153 154 160 157 156 162 160 159 147 142 145 156 171 168
305 51 177 154 144 152 142 139 149 152 138 139 142 146 156 165 171 174 180 185 183 193 193 202 183 189 162 147 146 148 149 150 146 148 151 153 156 157 148 149 156 160 167
134 181 170 149 146 146 137 142 147 140 135 138 148 155 161 166 162 157 161 178 187 184 182 166 131 139 149 143 143 134 139 131 134 148 149 153 154 149 150 153 158 162 168